Location: *
(44.9308°N, 123.0197°W)
Time: 21:53:04
(UTC+00:00)

ADEOS - Pass Details

Date: 09 April 2020
Orbit: 792 x 795 km, 98.9° (Epoch: 02 June)

Event Time Altitude Azimuth Distance (km) Brightness Sun altitude
Rises 12:53:35 0° 9° (N) 3,308 7.2 -8.2°
Reaches altitude 10° 12:55:58 10° 5° (N) 2,373 6.4 -7.8°
Maximum altitude 13:01:02 53° 290° (WNW) 975 3.8 -7.0°
Drops below altitude 10° 13:06:05 10° 215° (SW) 2,355 5.6 -6.1°
Sets 13:08:26 0° 211° (SSW) 3,280 6.3 -5.7°
